FENGYUN 1C DEB, 30706

Orbit data source: Space-Track

FENGYUN 1C DEB, 30706 is space debris in SSO originally from a launch on Mon, 10 May 1999 UTC launched from the Taiyaun Space Center, China (TSC). Fengyun 1C debris stems from the Chinese weather satellite Fengyun-1C, which was intentionally destroyed by a Chinese anti-satellite missile in 2007. This event dramatically increased the amount of space debris, with thousands of trackable fragments posing hazards to satellites and human spaceflight. The Fengyun 1C debris cloud has become a focal point in discussions about space sustainability and the need for international regulations to prevent the creation of new debris.

Loading next visibility...
Identifier
30706, 1999-025ARQ
Orbit
SSO
Country
Flag of CNCN / PRC
Related business
Manufacturer
Unknown
Mission
Spacecraft
Bus & Motor
Unknown
Mass
Unknown
Launch date (UTC)
1999-05-10 (27 years ago)
Launch vehicle
Unknown
Launch site
Taiyaun Space Center, China (TSC)
Object type
Payload
Rocket body
Debris
Shape & HBR
Unknown shape, 0.1 m
Radar Cross Section
Small (<0.1 m²)

Expand to show TLE details & history
Last TLE update: 15 hours ago

TLE from 15 hours ago
0 FENGYUN 1C DEB
1 30706U 99025ARQ 26124.00853712  .00001511  00000-0  63724-3 0  9995
2 30706  99.0574  28.6201 0027906  79.4525 280.9796 14.27026255996567
Epoch: 2026-05-04T00:12Z
TLE epoch observation values (Epoch: 2026-05-04T00:12:17.607Z)
Latitude
-0°
Longitude
163.64284°
Altitude
800.838 km
Speed
7.455 km/s
True Right ascension
01h 54m 28s
True Declination
0° 00' 00"
Sunlit
Object was in daylight at epoch
Visualization orbit readout
Latitude
Unknown
Longitude
Unknown
Altitude
Unknown
Speed
Unknown
Apparent Right ascension
Unknown
Apparent Declination
Unknown
Sunlit
N/A
Visualization observer readout
Local Sidereal Time
23:28:35
Azimuth
Unknown
Elevation
Unknown
Doppler factor
Unknown
Orbital elements
Apogee altitude
818.882 km
Perigee altitude
778.826 km
Semi-major axis
7,176.991 km
Eccentricity
0.00279
Inclination
99.0574°
RAAN
28.6201°
Arg. of periapsis
79.4525°
True anomaly
280.66547°
Mean anomaly
280.9796°
Eccentric anomaly
280.82255°
Mean motion
3.56968 °/min
Orbital period
100.85 mins
BSTAR
0.00063724
Loading maneuver chart data...
Computing Atmospheric mass density...

Documentation

Showing up to 5 results
|